Other Surface Observations
Issued by NWS Charleston, SC

Home | Current Version | Previous Version | Text Only | Print | Product List | Glossary On
Versions: 1 2 3 4 5 6 7 8 9 10 11 12 13 14 15 16 17 18 19 20 21 22 23 24 25 26 27 28 29 30 31 32 33 34 35 36 37 38 39 40 41 42 43 44 45 46 47 48 49 50
000
SXUS52 KCHS 301027
OSOCHS

MARINE OBSERVATIONS
NATIONAL WEATHER SERVICE CHARLESTON SC
600 AM EDT SUN AUG 30 2015

...DOWNTOWN CHARLESTON AND HARBOR...

CITY           SKY/WX    TMP DP  RH WIND       PRES   REMARKS
WATERFRONT PRK   N/A     74  73  96 CALM      30.06R

...LAKE MOULTRIE...

CITY           SKY/WX    TMP DP  RH WIND       PRES   REMARKS
PINOPOLIS        N/A     77  70  78 VRB3      30.02R

...LAKE AND SUPPLEMENTAL COASTAL OBSERVATIONS...

STATION/POSITION TIME  TEMP    WIND        PRES    WAVE   SWELL
                       AIR SEA DIR/SP/G            HT/PER HT/PER/DIR
                 (UTC) (F)     (DEG/KT/KT) (MB)    (FT/S) (FT/S/D)
FORT PULASKI     NOT AVBL
SAPELO ISLAND    1000   76      50/  3     1018.0R
UPR LAKE MARION  NOT AVBL
WINYAH BAY       0900   76      50/  1     1018.0S
LAKE MURRAY      1000   72      CALM  /  2 1019.6R
ACE BASIN NERRS  NOT AVBL


...C-MAN AND BUOY OBSERVATIONS...

STATION/POSITION TIME  TEMP    WIND        PRES    WAVE   SWELL
                       AIR SEA DIR/SP/G            HT/PER HT/PER/DIR
                 (UTC) (F)     (DEG/KT/KT) (MB)    (FT/S) (FT/S/D)
BUOY 41004       0950   77 85  330/  4/  6 1018.2F   4/11   3/11
BUOY 41008       0950   81 85  150/ 12/ 14 1018.1R   5/11   3/110/11
FOLLY BEACH CMAN 1000   73     300/  2/  2 1019.4R
CAPERS NS BUOY   NOT AVBL
FRIPP NS BUOY    NOT AVBL
5E ST. MARYS GA  0921      86                N/A     6/11   2/110/11


STATION/POSITION TIME  TEMP    WIND        PRES    WAVE   SWELL
                       AIR SEA DIR/SP/G            HT/PER HT/PER/DIR
                 (UTC) (F)     (DEG/KT/KT) (MB)    (FT/S) (FT/S/D)
FRYING PAN BUOY  0950   80 81   70/  8/ 10 1019.2S   4/11   3/140/11
BUOY 41025       0950   78 81  350/ 10/ 12 1018.6R   4/10   3/100/10
CAPE LOOKOUT NC  1000   74     350/  5/  5 1019.1R
BUOY 41002       0950   83 84  230/  4/  6 1019.3R   4/10   5/120/10
BUOY 41010       0920   84 85  130/ 14/ 16 1017.1R
ST AUGUSTINE FL  1000   80 84  140/ 17/ 19 1017.1R

$$



USA.gov is the U.S. government's official web portal to all federal, state and local government web resources and services.